IBE042G LEPA-LEMD

Flight info

Callsign IBE042G
Flight time 1h 0m
Altitude 31000
Route EPAMA N733 PRADO
Aircraft A346/H-SDE2E3FGHIJ3J4J5M1RWXY/LB1D1

Departure

Time 2026-05-07 18:24
Airport Palma de Mallorca Airport (LEPA)

Arrival

Time 2026-05-07 19:24
Airport Adolfo Suárez Madrid–Barajas Airport (LEMD)
Time Latitude Longitude Altitude Speed Heading
2026-05-07 17:51 39.55142 2.72967 34 ft 0 kts 164°
2026-05-07 18:04 39.55162 2.72959 34 ft 3 kts 163°
2026-05-07 18:04 39.55182 2.72952 32 ft 3 kts 145°
2026-05-07 18:04 39.55193 2.72933 32 ft 2 kts 70°
2026-05-07 18:05 39.55193 2.72931 33 ft 0 kts 70°
2026-05-07 18:07 39.55197 2.72943 34 ft 7 kts 64°
2026-05-07 18:07 39.55233 2.73003 34 ft 8 kts 53°
2026-05-07 18:07 39.55265 2.73068 34 ft 9 kts 57°
2026-05-07 18:07 39.55299 2.73139 34 ft 10 kts 59°
2026-05-07 18:08 39.55336 2.73218 34 ft 11 kts 57°
2026-05-07 18:08 39.55379 2.73302 34 ft 12 kts 58°
2026-05-07 18:08 39.55424 2.73395 34 ft 13 kts 58°
2026-05-07 18:08 39.55466 2.73492 34 ft 12 kts 59°
2026-05-07 18:09 39.55497 2.73577 34 ft 8 kts 94°
2026-05-07 18:09 39.55459 2.73627 34 ft 9 kts 142°
2026-05-07 18:09 39.55401 2.73675 34 ft 11 kts 152°
2026-05-07 18:09 39.55328 2.73725 34 ft 13 kts 147°
2026-05-07 18:10 39.55251 2.73797 34 ft 14 kts 144°
2026-05-07 18:10 39.55158 2.73864 34 ft 16 kts 151°
2026-05-07 18:10 39.55062 2.73943 34 ft 17 kts 147°
2026-05-07 18:10 39.54967 2.74018 34 ft 16 kts 148°
2026-05-07 18:11 39.54869 2.74096 34 ft 16 kts 149°
2026-05-07 18:11 39.54813 2.74124 34 ft 10 kts 180°
2026-05-07 18:11 39.54763 2.74067 34 ft 11 kts 238°
2026-05-07 18:11 39.54702 2.73941 34 ft 14 kts 239°
2026-05-07 18:12 39.54648 2.73827 34 ft 16 kts 240°
2026-05-07 18:12 39.54616 2.73755 34 ft 11 kts 239°
2026-05-07 18:12 39.54572 2.73660 34 ft 14 kts 240°
2026-05-07 18:12 39.54517 2.73549 34 ft 16 kts 237°
2026-05-07 18:13 39.54453 2.73425 34 ft 17 kts 238°
2026-05-07 18:13 39.54408 2.73321 34 ft 0 kts 242°
2026-05-07 18:13 39.54405 2.73313 34 ft 2 kts 241°
2026-05-07 18:13 39.54394 2.73288 34 ft 7 kts 240°
2026-05-07 18:14 39.54359 2.73213 34 ft 11 kts 240°
2026-05-07 18:14 39.54313 2.73191 34 ft 6 kts 151°
2026-05-07 18:14 39.54289 2.73238 34 ft 7 kts 108°
2026-05-07 18:14 39.54286 2.73262 34 ft 0 kts 99°
2026-05-07 18:17 39.54285 2.73266 34 ft 5 kts 99°
2026-05-07 18:17 39.54276 2.73368 34 ft 0 kts 94°
2026-05-07 18:22 39.54276 2.73375 34 ft 6 kts 94°
2026-05-07 18:22 39.54274 2.73442 34 ft 13 kts 91°
2026-05-07 18:22 39.54320 2.73572 34 ft 11 kts 58°
2026-05-07 18:22 39.54325 2.73582 34 ft 0 kts 59°
2026-05-07 18:23 39.54338 2.73611 34 ft 21 kts 59°
2026-05-07 18:23 39.54536 2.74035 34 ft 87 kts 58°
2026-05-07 18:23 39.54951 2.74914 36 ft 139 kts 59°
2026-05-07 18:24 39.55441 2.76030 696 ft 123 kts 62°
2026-05-07 18:24 39.55734 2.76900 1496 ft 106 kts 68°
2026-05-07 18:24 39.55952 2.77980 1530 ft 153 kts 76°
2026-05-07 18:24 39.56307 2.79442 1827 ft 176 kts 68°
2026-05-07 18:25 39.57023 2.80834 2228 ft 194 kts 49°
2026-05-07 18:25 39.57872 2.82104 2883 ft 198 kts 52°
2026-05-07 18:25 39.58713 2.83517 3680 ft 203 kts 55°
2026-05-07 18:25 39.59397 2.84784 4345 ft 208 kts 57°
2026-05-07 18:26 39.60175 2.86314 5155 ft 212 kts 58°
2026-05-07 18:26 39.60972 2.87950 5823 ft 216 kts 59°
2026-05-07 18:26 39.61777 2.89627 5982 ft 221 kts 59°
2026-05-07 18:26 39.62711 2.91207 6024 ft 222 kts 45°
2026-05-07 18:27 39.64013 2.92277 6412 ft 225 kts 22°
2026-05-07 18:27 39.65580 2.92573 7145 ft 233 kts 357°
2026-05-07 18:27 39.67142 2.91967 7967 ft 239 kts 331°
2026-05-07 18:27 39.68365 2.90501 8809 ft 243 kts 304°
2026-05-07 18:28 39.68966 2.88468 9557 ft 248 kts 276°
2026-05-07 18:28 39.68794 2.86247 10286 ft 250 kts 249°
2026-05-07 18:28 39.68214 2.84160 10974 ft 254 kts 253°
2026-05-07 18:28 39.68087 2.81859 11721 ft 257 kts 273°
2026-05-07 18:29 39.68188 2.79531 12455 ft 261 kts 272°
2026-05-07 18:29 39.68308 2.77166 13215 ft 264 kts 273°
2026-05-07 18:29 39.68634 2.74794 13756 ft 269 kts 287°
2026-05-07 18:29 39.69348 2.72479 13929 ft 294 kts 294°
2026-05-07 18:30 39.70240 2.69945 13955 ft 319 kts 294°
2026-05-07 18:30 39.71111 2.67239 14332 ft 327 kts 287°
2026-05-07 18:30 39.71503 2.64333 15067 ft 327 kts 269°
2026-05-07 18:30 39.71431 2.61370 15517 ft 339 kts 264°
2026-05-07 18:31 39.71211 2.58253 15802 ft 355 kts 262°
2026-05-07 18:31 39.70943 2.54979 16118 ft 369 kts 262°
2026-05-07 18:31 39.70661 2.51623 16628 ft 377 kts 262°
2026-05-07 18:31 39.70369 2.48207 17211 ft 384 kts 261°
2026-05-07 18:32 39.70070 2.44737 17836 ft 389 kts 261°
2026-05-07 18:32 39.69770 2.41274 18431 ft 393 kts 261°
2026-05-07 18:32 39.69462 2.37735 19108 ft 394 kts 261°
2026-05-07 18:32 39.69153 2.34196 19825 ft 394 kts 261°
2026-05-07 18:33 39.68842 2.30657 20542 ft 393 kts 260°
2026-05-07 18:33 39.68531 2.27123 21217 ft 393 kts 260°
2026-05-07 18:33 39.68218 2.23585 21867 ft 395 kts 260°
2026-05-07 18:33 39.67906 2.20076 22436 ft 398 kts 260°
2026-05-07 18:34 39.67586 2.16488 23016 ft 401 kts 259°
2026-05-07 18:34 39.67264 2.12886 23576 ft 403 kts 259°
2026-05-07 18:34 39.66937 2.09252 24027 ft 406 kts 259°
2026-05-07 18:34 39.66609 2.05602 24474 ft 409 kts 259°
2026-05-07 18:35 39.66277 2.01931 24926 ft 411 kts 259°
2026-05-07 18:35 39.65941 1.98231 25374 ft 413 kts 259°
2026-05-07 18:35 39.65602 1.94511 25824 ft 416 kts 259°
2026-05-07 18:35 39.65265 1.90817 26283 ft 418 kts 259°
2026-05-07 18:36 39.64918 1.87043 26524 ft 426 kts 259°
2026-05-07 18:36 39.64563 1.83198 26850 ft 430 kts 259°
2026-05-07 18:36 39.64207 1.79343 27316 ft 432 kts 259°
2026-05-07 18:36 39.63849 1.75468 27771 ft 433 kts 259°
2026-05-07 18:37 39.63487 1.71574 28187 ft 435 kts 259°
2026-05-07 18:37 39.63122 1.67667 28606 ft 438 kts 259°
2026-05-07 18:37 39.62753 1.63731 29013 ft 440 kts 259°
2026-05-07 18:37 39.62380 1.59766 29413 ft 442 kts 259°
2026-05-07 18:38 39.62004 1.55792 29814 ft 445 kts 259°
2026-05-07 18:38 39.61627 1.51805 30195 ft 447 kts 259°
2026-05-07 18:38 39.61247 1.47802 30549 ft 448 kts 259°
2026-05-07 18:38 39.60863 1.43783 30867 ft 450 kts 259°
2026-05-07 18:39 39.60486 1.39832 30926 ft 443 kts 259°
2026-05-07 18:39 39.59852 1.31984 30941 ft 435 kts 262°
2026-05-07 18:40 39.59466 1.24161 30937 ft 435 kts 263°
2026-05-07 18:40 39.59086 1.16389 30946 ft 434 kts 262°
2026-05-07 18:41 39.58660 1.08572 30940 ft 432 kts 262°
2026-05-07 18:41 39.58215 1.00851 30952 ft 431 kts 262°
2026-05-07 18:42 39.57759 0.93108 30949 ft 431 kts 262°
2026-05-07 18:42 39.57299 0.85354 30946 ft 429 kts 263°
2026-05-07 18:43 39.56838 0.77662 30943 ft 428 kts 263°
2026-05-07 18:43 39.56376 0.70029 30947 ft 417 kts 264°
2026-05-07 18:44 39.55921 0.62578 30954 ft 414 kts 264°
2026-05-07 18:44 39.55462 0.55197 30952 ft 413 kts 264°
2026-05-07 18:45 39.54999 0.47772 30950 ft 413 kts 264°
2026-05-07 18:45 39.54532 0.40334 30953 ft 413 kts 264°
2026-05-07 18:46 39.54062 0.32977 30953 ft 408 kts 265°
2026-05-07 18:46 39.53595 0.25685 30951 ft 405 kts 265°
2026-05-07 18:47 39.53121 0.18400 30953 ft 405 kts 265°
2026-05-07 18:47 39.52645 0.11175 30953 ft 405 kts 265°
2026-05-07 18:48 39.52162 0.03911 30953 ft 405 kts 265°
2026-05-07 18:48 39.51675 -0.03346 30957 ft 403 kts 266°
2026-05-07 18:49 39.51187 -0.10542 30966 ft 399 kts 266°
2026-05-07 18:49 39.50702 -0.17674 30974 ft 399 kts 266°
2026-05-07 18:50 39.50209 -0.24838 30980 ft 399 kts 266°
2026-05-07 18:50 39.49713 -0.31991 30988 ft 398 kts 266°
2026-05-07 18:51 39.49215 -0.39104 30992 ft 398 kts 266°
2026-05-07 18:51 39.49210 -0.46245 30993 ft 397 kts 277°
2026-05-07 18:52 39.50768 -0.53106 30995 ft 400 kts 294°
2026-05-07 18:52 39.53410 -0.59467 30995 ft 401 kts 297°
2026-05-07 18:53 39.56215 -0.65720 30986 ft 401 kts 297°
2026-05-07 18:53 39.59000 -0.71934 30971 ft 404 kts 297°
2026-05-07 18:54 39.61829 -0.78337 30968 ft 410 kts 298°
2026-05-07 18:54 39.64598 -0.84635 30973 ft 396 kts 298°
2026-05-07 18:55 39.67317 -0.90843 30975 ft 395 kts 298°
2026-05-07 18:55 39.70007 -0.96998 30948 ft 394 kts 298°
2026-05-07 18:56 39.72703 -1.03192 30937 ft 394 kts 298°
2026-05-07 18:56 39.75398 -1.09395 30940 ft 393 kts 298°
2026-05-07 18:57 39.78092 -1.15586 30935 ft 393 kts 298°
2026-05-07 18:57 39.80755 -1.21678 30949 ft 385 kts 298°
2026-05-07 18:58 39.83408 -1.27771 30949 ft 392 kts 298°
2026-05-07 18:58 39.83665 -1.28365 30953 ft 392 kts 298°
2026-05-07 18:59 39.85987 -1.33739 30962 ft 392 kts 298°
2026-05-07 19:00 39.88658 -1.39933 30979 ft 392 kts 298°
2026-05-07 19:00 39.91329 -1.46125 30993 ft 392 kts 298°
2026-05-07 19:01 39.93958 -1.52238 30382 ft 386 kts 298°
2026-05-07 19:01 39.95266 -1.55285 29405 ft 377 kts 298°
2026-05-07 19:01 39.96515 -1.58194 28915 ft 362 kts 298°
2026-05-07 19:01 39.97744 -1.61061 28418 ft 362 kts 297°
2026-05-07 19:02 39.98561 -1.62971 28069 ft 363 kts 297°
2026-05-07 19:02 39.99796 -1.65857 27563 ft 364 kts 297°
2026-05-07 19:02 40.01030 -1.68743 27032 ft 364 kts 297°
2026-05-07 19:02 40.02672 -1.72588 26337 ft 368 kts 297°
2026-05-07 19:03 40.03516 -1.74569 25972 ft 371 kts 297°
2026-05-07 19:03 40.04776 -1.77525 25422 ft 374 kts 297°
2026-05-07 19:03 40.06041 -1.80494 24873 ft 375 kts 296°
2026-05-07 19:03 40.07295 -1.83442 24310 ft 376 kts 296°
2026-05-07 19:04 40.08570 -1.86441 23748 ft 378 kts 296°
2026-05-07 19:04 40.09848 -1.89453 23123 ft 380 kts 296°
2026-05-07 19:04 40.11131 -1.92477 22540 ft 380 kts 297°
2026-05-07 19:04 40.12413 -1.95501 21964 ft 380 kts 297°
2026-05-07 19:05 40.13693 -1.98523 21401 ft 380 kts 297°
2026-05-07 19:05 40.14976 -2.01556 20849 ft 380 kts 297°
2026-05-07 19:05 40.16232 -2.04528 20501 ft 380 kts 297°
2026-05-07 19:05 40.17516 -2.07562 20132 ft 381 kts 297°
2026-05-07 19:06 40.18798 -2.10592 19747 ft 379 kts 297°
2026-05-07 19:06 40.21339 -2.16609 18976 ft 376 kts 297°
2026-05-07 19:06 40.22606 -2.19615 18592 ft 375 kts 297°
2026-05-07 19:07 40.23861 -2.22597 18206 ft 373 kts 297°
2026-05-07 19:07 40.25086 -2.25537 17802 ft 371 kts 295°
2026-05-07 19:07 40.25995 -2.28672 17428 ft 366 kts 281°
2026-05-07 19:07 40.26242 -2.31974 17057 ft 364 kts 270°
2026-05-07 19:08 40.26238 -2.35277 16690 ft 363 kts 268°
2026-05-07 19:08 40.26205 -2.38573 16392 ft 358 kts 268°
2026-05-07 19:08 40.26178 -2.41787 16200 ft 347 kts 269°
2026-05-07 19:08 40.26154 -2.44866 15999 ft 337 kts 268°
2026-05-07 19:09 40.26133 -2.47899 15839 ft 328 kts 269°
2026-05-07 19:09 40.26114 -2.50850 15671 ft 320 kts 269°
2026-05-07 19:09 40.26095 -2.53726 15526 ft 311 kts 269°
2026-05-07 19:09 40.26075 -2.56535 15374 ft 304 kts 268°
2026-05-07 19:10 40.26057 -2.59236 15234 ft 297 kts 268°
2026-05-07 19:10 40.26040 -2.61906 15121 ft 290 kts 269°
2026-05-07 19:10 40.26033 -2.64524 15007 ft 284 kts 269°
2026-05-07 19:10 40.26030 -2.67076 14904 ft 277 kts 269°
2026-05-07 19:11 40.26025 -2.69583 14802 ft 272 kts 269°
2026-05-07 19:11 40.26019 -2.72032 14567 ft 267 kts 269°
2026-05-07 19:11 40.26011 -2.74449 14148 ft 265 kts 269°
2026-05-07 19:11 40.26003 -2.76866 13864 ft 266 kts 269°
2026-05-07 19:12 40.25995 -2.79276 13504 ft 262 kts 269°
2026-05-07 19:12 40.25986 -2.81659 13010 ft 261 kts 269°
2026-05-07 19:12 40.25977 -2.84030 12569 ft 260 kts 268°
2026-05-07 19:12 40.25966 -2.86412 12265 ft 261 kts 269°
2026-05-07 19:13 40.25956 -2.88741 12030 ft 257 kts 268°
2026-05-07 19:13 40.25945 -2.91084 11711 ft 258 kts 268°
2026-05-07 19:13 40.25934 -2.93413 11370 ft 253 kts 268°
2026-05-07 19:13 40.25922 -2.95728 10936 ft 257 kts 268°
2026-05-07 19:14 40.25910 -2.98060 10739 ft 254 kts 268°
2026-05-07 19:14 40.25897 -3.00367 10492 ft 253 kts 268°
2026-05-07 19:14 40.25884 -3.02661 10042 ft 252 kts 268°
2026-05-07 19:14 40.25871 -3.04958 9514 ft 252 kts 268°
2026-05-07 19:15 40.25857 -3.07237 9048 ft 248 kts 268°
2026-05-07 19:15 40.25843 -3.09488 8582 ft 245 kts 268°
2026-05-07 19:15 40.25829 -3.11734 8342 ft 248 kts 268°
2026-05-07 19:15 40.25815 -3.13953 8141 ft 246 kts 268°
2026-05-07 19:16 40.25985 -3.16181 7876 ft 247 kts 279°
2026-05-07 19:16 40.26329 -3.18386 7618 ft 247 kts 280°
2026-05-07 19:16 40.26672 -3.20598 7354 ft 247 kts 279°
2026-05-07 19:16 40.26995 -3.22809 7103 ft 246 kts 279°
2026-05-07 19:17 40.27309 -3.24971 6976 ft 241 kts 280°
2026-05-07 19:17 40.27603 -3.27032 6834 ft 222 kts 278°
2026-05-07 19:17 40.27862 -3.29000 6461 ft 215 kts 278°
2026-05-07 19:17 40.28109 -3.30891 6149 ft 205 kts 278°
2026-05-07 19:18 40.28527 -3.32643 6026 ft 203 kts 295°
2026-05-07 19:18 40.29311 -3.34154 5825 ft 198 kts 308°
2026-05-07 19:18 40.30205 -3.35548 5383 ft 201 kts 310°
2026-05-07 19:18 40.31114 -3.36908 5068 ft 202 kts 314°
2026-05-07 19:19 40.32187 -3.38123 5017 ft 204 kts 321°
2026-05-07 19:19 40.33299 -3.39273 5013 ft 203 kts 320°
2026-05-07 19:19 40.34071 -3.40092 5018 ft 203 kts 321°
2026-05-07 19:19 40.35145 -3.41184 4962 ft 198 kts 322°
2026-05-07 19:20 40.36190 -3.42261 4725 ft 184 kts 321°
2026-05-07 19:20 40.37169 -3.43275 4484 ft 175 kts 322°
2026-05-07 19:20 40.38103 -3.44222 4257 ft 165 kts 322°
2026-05-07 19:20 40.38983 -3.45117 4027 ft 156 kts 323°
2026-05-07 19:21 40.39810 -3.45957 3847 ft 149 kts 324°
2026-05-07 19:21 40.40611 -3.46769 3643 ft 144 kts 324°
2026-05-07 19:21 40.41401 -3.47572 3459 ft 144 kts 324°
2026-05-07 19:21 40.42198 -3.48381 3278 ft 144 kts 323°
2026-05-07 19:22 40.42978 -3.49173 3057 ft 137 kts 323°
2026-05-07 19:22 40.43711 -3.49919 2877 ft 132 kts 323°
2026-05-07 19:22 40.44430 -3.50650 2701 ft 129 kts 323°
2026-05-07 19:22 40.45131 -3.51362 2511 ft 126 kts 324°
2026-05-07 19:23 40.45815 -3.52057 2360 ft 126 kts 323°
2026-05-07 19:23 40.46510 -3.52766 2199 ft 127 kts 324°
2026-05-07 19:23 40.47204 -3.53469 2015 ft 124 kts 323°
2026-05-07 19:23 40.47873 -3.54150 1952 ft 114 kts 324°
2026-05-07 19:24 40.48267 -3.54551 1938 ft 24 kts 321°
2026-05-07 19:24 40.48377 -3.54664 1941 ft 16 kts 322°
2026-05-07 19:24 40.48461 -3.54748 1943 ft 15 kts 322°
2026-05-07 19:24 40.48537 -3.54825 1946 ft 13 kts 322°
2026-05-07 19:25 40.48604 -3.54896 1950 ft 12 kts 322°
2026-05-07 19:25 40.48682 -3.54974 1952 ft 16 kts 318°
2026-05-07 19:25 40.48753 -3.55088 1954 ft 19 kts 303°
2026-05-07 19:25 40.48816 -3.55259 1956 ft 22 kts 291°
2026-05-07 19:26 40.48881 -3.55441 1956 ft 22 kts 305°
2026-05-07 19:26 40.48990 -3.55564 1958 ft 19 kts 322°
2026-05-07 19:26 40.49093 -3.55670 1961 ft 17 kts 321°
2026-05-07 19:26 40.49190 -3.55767 1964 ft 17 kts 322°
2026-05-07 19:27 40.49287 -3.55865 1964 ft 18 kts 322°
2026-05-07 19:27 40.49389 -3.55969 1964 ft 19 kts 322°
2026-05-07 19:27 40.49495 -3.56078 1964 ft 20 kts 322°
2026-05-07 19:27 40.49616 -3.56143 1963 ft 20 kts 359°
2026-05-07 19:28 40.49749 -3.56144 1963 ft 19 kts 360°
2026-05-07 19:28 40.49875 -3.56147 1963 ft 12 kts 359°
2026-05-07 19:28 40.49938 -3.56188 1964 ft 8 kts 289°
2026-05-07 19:28 40.49940 -3.56260 1966 ft 8 kts 269°
2026-05-07 19:29 40.49939 -3.56326 1967 ft 7 kts 270°
2026-05-07 19:29 40.49939 -3.56392 1972 ft 8 kts 269°
2026-05-07 19:29 40.49939 -3.56469 1971 ft 9 kts 270°
2026-05-07 19:29 40.49921 -3.56530 1976 ft 6 kts 230°
2026-05-07 19:30 40.49912 -3.56576 1977 ft 5 kts 261°
2026-05-07 19:30 40.49910 -3.56620 1978 ft 5 kts 268°
2026-05-07 19:30 40.49910 -3.56659 1978 ft 1 kts 270°
2026-05-07 19:30 40.49910 -3.56661 1978 ft 0 kts 270°